Home > Weather > Baltimore > Past weeks

Flag for U.S.A. Weather for the Past 2 Weeks in Baltimore, Maryland, U.S.A.

Now
20 °F

Passing clouds.


Feels Like: 12 °F
Forecast: 14 / 23 °F
Wind: 6 mph from West

Location: Baltimore-Washington International Airport

Current Time: Feb 13, 2016 at 2:38:46 AM

Latest Report: Feb 13, 2016 at 1:54 AM


Visibility: 10 mi

Pressure: 29.98 "Hg

Humidity: 82%

Dew point: 15 °F

Location of BaltimoreLocation

Historic Weather in Baltimore — Graph

°F

Baltimore Temperature Yesterday

Maximum temperature yesterday: 28 °F (at 1:54 PM)
Minimum temperature yesterday: 13 °F (at 4:54 AM)
Average temperature yesterday: 21 °F

High & Low Weather Summary for the Past Weeks

 TemperatureHumidityPressure
High61 °F (Jan 31, 2:54 PM)100% (Feb 1, 6:54 PM)30.46 "Hg (Feb 1, 6:54 PM)
Low13 °F (Feb 12, 4:54 AM)32% (Jan 31, 12:54 PM)29.54 "Hg (Jan 29, 4:54 AM)
Average36 °F66%30.00 "Hg
* Reported Jan 29 12:54 AM — Feb 13 12:54 AM, Baltimore, Weather by CustomWeather, © 2016

Note: Actual official high and low records may vary slightly from our data, if they occured in-between our weather recording intervals... More about our weather records

Advertising

Baltimore Weather History for the Previous 24 Hours

 ConditionsComfort  
Time TempWeatherWind HumidityBarometerVisibility
12:54 AM
Sat, Feb 13
20 °FPassing clouds.3 mph82%29.99 "Hg10 mi
11:54 PM
Fri, Feb 12
23 °FPassing clouds.3 mph78%30.00 "Hg10 mi
10:54 PM24 °FMostly cloudy.7 mph75%30.00 "Hg9 mi
9:54 PM24 °FOvercast.5 mph68%30.01 "Hg10 mi
8:54 PM24 °FMostly cloudy.No wind68%30.00 "Hg10 mi
7:54 PM24 °FMostly cloudy.5 mph65%30.01 "Hg10 mi
6:54 PM25 °FMostly cloudy.7 mph63%30.02 "Hg10 mi
5:54 PM24 °FMostly cloudy.7 mph65%30.02 "Hg10 mi
4:54 PM25 °FLight snow. Mostly cloudy.8 mph63%30.04 "Hg5 mi
3:54 PM26 °FMore clouds than sun.10 mph48%30.04 "Hg10 mi
2:54 PM26 °FMostly cloudy.10 mph44%30.08 "Hg10 mi
1:54 PM28 °FBroken clouds.5 mph34%30.10 "Hg10 mi
12:54 PM27 °FBroken clouds.3 mph35%30.16 "Hg10 mi
11:54 AM24 °FBroken clouds.3 mph38%30.22 "Hg10 mi
10:54 AM23 °FPartly sunny.6 mph38%30.25 "Hg10 mi
9:54 AM22 °FPartly sunny.6 mph42%30.29 "Hg10 mi
8:54 AM20 °FPartly sunny.No wind48%30.31 "Hg10 mi
7:54 AM17 °FPartly sunny.No wind68%30.31 "Hg10 mi
6:54 AM14 °FPassing clouds.No wind71%30.31 "Hg10 mi
5:54 AM14 °FPassing clouds.No wind61%30.32 "Hg10 mi
4:54 AM13 °FPassing clouds.No wind67%30.31 "Hg10 mi
3:54 AM16 °FPassing clouds.5 mph56%30.31 "Hg10 mi
2:54 AM17 °FPassing clouds.3 mph51%30.32 "Hg10 mi
Weather by CustomWeather, © 2016

See weather overviewHow to use our weather pages